Temp_Advection
nan nan nan nan nan nan nan nan nan nan nan nan nan nan nan nan nan nan nan nan nan nan nan nan nan nan nan nan nan nan nan nan nan nan nan nan nan nan nan nan nan nan nan nan nan nan nan nan nan nan nan nan nan nan nan nan nan nan nan nan nan nan nan nan nan nan nan nan nan
nan 1 0 0 0 0 -0 -0 -0 0 0 0 1 1 1 1 1 1 1 1 1 1 1 1 1 1 1 1 1 1 0 0 0 0 0 0 0 1 1 1 1 1 1 1 1 0 0 0 -0 -0 -0 -0 -0 -0 -0 0 0 0 0 0 0 0 0 -0 -0 0 0 0 nan
nan 1 1 0 0 -0 -0 -0 -0 0 0 1 1 1 1 1 1 1 1 1 1 2 1 1 1 2 2 1 1 1 0 0 0 0 0 0 1 1 1 1 1 1 1 1 0 0 0 0 -0 -0 -0 -0 -0 -0 0 0 0 0 -0 0 0 0 -0 -0 -0 0 0 0 nan
nan 0 0 0 -0 -0 -0 -0 0 0 0 1 1 1 1 1 1 1 1 1 1 1 1 2 2 2 2 2 1 1 0 0 0 0 0 0 1 1 1 0 1 1 1 1 0 0 0 -0 -0 -0 -0 -0 -0 0 0 0 0 0 -0 0 0 0 0 -0 0 0 0 0 nan
nan 0 0 0 0 0 0 0 0 0 1 1 1 1 0 0 1 1 1 1 1 1 2 2 2 2 2 2 1 1 0 0 0 0 0 1 1 1 0 0 1 1 1 1 1 0 0 -0 -0 -0 -0 -0 -0 0 0 0 0 0 -0 0 0 0 0 0 0 0 0 0 nan
nan 0 0 0 0 0 0 0 0 0 1 1 0 0 0 0 1 1 0 0 1 2 3 2 2 2 2 2 1 1 0 0 0 1 1 1 1 0 0 0 1 1 1 1 0 0 0 -0 -0 -0 -0 -0 0 0 0 0 0 0 0 -0 0 0 0 0 0 0 1 0 nan
nan 0 0 0 0 0 0 0 0 0 0 0 0 -0 0 1 1 1 1 1 2 2 2 2 2 2 1 1 1 1 0 0 0 1 1 1 0 0 0 1 1 1 1 0 0 0 -0 -0 -0 -0 -0 0 0 0 0 0 0 0 -0 0 0 1 0 0 0 1 1 1 nan
nan 0 0 0 0 0 0 0 0 0 0 -0 -0 -0 0 1 1 1 1 1 1 1 2 2 2 1 1 1 1 1 1 1 1 1 1 1 0 0 0 1 1 1 1 0 0 0 -0 -0 -0 -0 0 0 0 0 0 0 0 0 -0 0 0 1 1 1 1 1 1 1 nan
nan 0 0 0 0 0 0 0 0 0 -0 -0 -0 0 1 1 1 1 1 1 1 2 2 1 1 2 1 1 1 1 1 1 1 1 1 1 0 0 0 1 1 1 1 0 0 -0 -0 -0 -0 -0 0 0 0 0 0 0 0 -0 -0 -0 0 0 1 1 1 1 1 1 nan
nan 0 0 0 0 0 0 0 0 0 -0 -0 0 0 1 1 0 0 1 1 2 1 1 1 1 2 1 1 1 1 1 1 1 1 1 1 0 0 1 1 1 1 1 0 -0 -0 -0 -0 -0 0 0 0 -0 0 0 0 0 -0 0 0 -0 0 0 1 1 1 1 1 nan
nan 0 0 0 0 0 0 0 0 -0 -0 -0 0 0 0 0 0 1 1 1 1 1 1 1 2 2 1 1 2 2 2 1 1 1 1 1 1 1 1 1 1 1 0 0 -0 -0 -0 -0 -0 0 0 0 0 0 0 0 0 0 -0 0 0 -0 0 1 1 1 1 1 nan
nan 0 0 0 0 0 0 -0 -0 -0 -0 0 0 0 0 0 1 1 1 1 1 1 1 2 2 2 2 2 2 2 2 1 1 1 1 1 1 1 1 1 1 1 0 -0 -0 -0 -0 -0 -0 -0 0 0 0 0 0 0 0 -0 0 0 0 0 0 0 1 1 1 1 nan
nan 0 0 0 0 0 -0 -0 -0 -0 0 0 0 0 1 1 1 1 1 1 1 1 2 2 2 2 2 2 2 2 2 1 1 0 0 0 1 1 1 1 1 0 0 0 0 0 0 -0 -0 -0 -0 0 0 0 0 0 0 -0 -0 0 0 0 0 1 1 1 1 1 nan
nan 0 -0 0 0 -0 -0 -0 -0 -0 0 0 0 1 1 1 1 1 1 1 1 1 2 2 2 2 2 2 2 2 1 1 0 0 0 0 1 1 1 1 1 0 0 0 0 0 0 -0 -0 -0 -0 -0 0 0 0 0 0 -0 0 0 0 0 0 1 1 1 1 1 nan
nan -0 -0 0 -0 -0 -0 -0 -0 0 0 0 1 1 1 1 1 1 1 1 1 2 2 2 2 2 2 2 2 1 1 1 0 -0 -0 0 1 1 1 1 0 0 0 0 0 0 0 -0 -0 -0 -0 -0 -0 0 0 0 0 0 0 0 0 0 0 1 1 1 1 1 nan
nan 0 0 -0 -0 -0 -0 -0 0 0 0 0 1 1 1 1 1 1 1 1 1 2 2 2 2 2 2 2 1 1 1 0 -0 -0 0 0 1 1 1 1 0 0 0 0 0 0 0 0 0 -0 -0 -0 -0 0 0 0 0 0 0 0 0 0 1 1 1 1 1 1 nan
nan 0 0 -0 -0 -0 -0 0 0 0 0 1 1 1 1 1 1 1 1 1 1 2 2 2 2 2 2 2 1 1 0 -0 -0 0 0 1 1 1 1 1 0 0 0 0 0 0 0 0 0 -0 -0 -0 -0 -0 0 0 0 0 0 0 1 1 1 1 1 1 1 1 nan
nan 0 0 -0 -0 -0 0 1 1 1 1 1 1 2 2 1 1 1 1 1 1 2 2 2 2 2 2 2 1 1 1 0 0 1 1 1 1 1 1 1 0 0 -0 -0 -0 -0 0 0 0 0 -0 -0 -0 -0 -0 0 0 0 0 0 1 1 1 1 1 1 1 1 nan
nan 0 0 -0 0 0 1 1 1 1 1 1 1 2 2 2 1 1 1 1 1 2 2 2 2 2 2 1 1 1 1 1 1 1 1 1 1 1 1 1 0 0 -0 -0 -0 -0 -0 0 0 0 0 -0 -0 -0 -0 0 0 0 0 0 0 1 1 1 1 1 1 1 nan
nan 0 0 0 1 1 1 1 1 1 1 1 1 2 2 2 2 1 1 1 2 2 2 2 2 2 2 2 1 1 1 1 1 1 1 1 1 1 1 0 0 0 -0 -0 -0 -0 -0 0 0 0 -0 -0 -0 -0 0 0 0 0 0 0 0 0 1 1 1 1 1 1 nan
nan 0 1 1 1 1 1 1 1 1 1 1 1 2 2 2 2 1 1 2 2 2 2 2 1 2 2 2 2 2 2 2 1 1 1 1 1 1 0 0 -0 -0 -0 -0 -0 -0 -0 -0 -0 -0 -0 -0 -0 -0 0 0 0 0 0 0 0 1 1 1 1 1 1 1 nan
nan 1 1 1 1 1 1 1 1 1 1 1 1 2 2 2 2 2 2 2 2 2 1 2 2 2 2 2 2 2 2 2 1 1 1 1 0 0 0 0 -0 -0 -0 -0 -0 -0 -0 -0 -0 -0 -0 -0 -0 0 0 0 0 0 0 0 0 1 1 1 1 1 1 0 nan
nan 1 1 1 1 1 1 1 1 1 1 1 1 2 2 2 2 2 2 2 2 2 2 2 2 2 2 2 2 2 2 1 1 1 1 0 0 0 0 -0 -0 -0 -0 -0 -0 -0 -0 -0 -0 -0 -0 -0 0 0 0 0 -0 -0 -0 0 0 0 1 1 1 1 0 0 nan
nan 1 1 1 1 1 1 1 1 1 1 1 1 2 2 2 2 2 2 2 2 2 2 2 2 2 2 2 2 2 2 1 1 1 1 0 0 0 0 -0 -0 -0 -0 -0 -0 -0 -0 -0 -0 -0 -0 -0 0 0 0 0 -0 -0 -1 -1 -0 0 0 1 1 1 0 0 nan
nan 1 1 1 1 1 1 0 0 0 1 1 2 2 2 2 2 2 2 2 2 2 2 2 2 2 2 2 2 2 1 1 1 1 0 0 0 0 0 -0 -0 -0 -0 -0 -0 -0 -0 -0 -0 -0 -0 -0 -0 -0 0 -0 -0 -0 -0 -1 -1 -1 -0 0 1 1 1 1 nan
nan 1 1 1 1 0 0 0 0 1 1 2 2 2 2 2 3 2 2 2 2 2 2 2 2 2 2 2 2 2 1 1 1 0 0 0 0 0 0 -0 -0 -0 -0 -0 -0 -0 -0 -0 0 0 0 0 -0 -0 0 0 0 0 0 -0 -0 -0 -1 -0 1 2 2 2 nan
nan 1 1 0 0 -0 -0 0 1 1 1 2 2 2 3 3 3 2 2 2 2 2 2 2 2 2 2 2 2 1 1 1 1 0 0 0 0 0 -0 -0 -0 -0 -0 -0 -0 -0 -0 -0 0 0 0 0 0 0 0 0 1 1 0 0 0 0 -0 -1 -0 1 2 2 nan
nan 0 0 0 -0 -0 0 1 1 1 1 2 3 3 3 3 3 2 2 2 2 2 2 2 2 2 2 1 1 1 1 1 0 0 0 0 0 -0 -0 -0 -0 -0 -0 -0 -0 -0 -0 -0 0 0 1 1 1 0 0 0 0 0 0 0 0 0 0 0 0 0 1 1 nan
nan 0 0 -0 -0 0 0 1 1 1 2 3 3 3 3 3 2 2 2 2 2 2 2 2 2 2 1 1 1 1 1 1 0 0 0 0 -0 -0 -0 -0 -0 0 0 -0 -0 -0 -0 -0 0 0 1 1 1 1 0 0 0 0 0 0 0 0 0 1 1 0 0 1 nan
nan 0 0 0 0 0 0 1 1 2 2 3 3 3 3 3 3 2 2 2 2 2 2 2 2 2 1 1 1 1 1 0 0 0 0 -0 -0 0 0 0 -0 -0 -0 -0 -0 -0 -0 -0 0 0 1 1 1 1 0 0 0 0 -0 0 0 0 1 1 1 1 1 1 nan
nan 0 0 0 0 0 0 1 2 2 2 2 2 2 2 3 3 3 3 2 2 2 2 2 2 1 1 1 1 1 0 0 0 0 -0 -0 0 0 0 0 0 0 -0 -0 -0 -0 0 0 0 0 0 1 1 1 1 0 0 0 -0 -0 0 0 1 1 1 1 1 1 nan
nan 0 0 0 0 0 1 1 2 2 2 2 2 3 3 3 3 3 3 3 2 2 2 2 1 1 1 1 1 1 0 0 0 -0 -0 0 0 0 0 0 -0 -0 -0 -0 -0 -0 0 0 0 0 0 1 1 1 0 0 0 -0 -0 -0 -0 0 1 1 1 1 1 1 nan
nan 0 0 0 0 0 0 1 1 2 2 2 2 3 3 3 3 3 2 2 2 2 2 1 1 1 1 1 1 0 0 -0 -0 -0 0 0 0 0 0 0 -0 -0 -0 -0 -0 0 0 0 0 0 0 1 1 1 1 0 0 -0 -0 -0 0 0 1 1 1 1 1 1 nan
nan 0 0 0 0 0 0 0 1 2 2 2 2 3 3 3 3 2 2 2 2 2 2 1 1 1 1 1 0 0 -0 -0 -0 0 0 0 0 0 0 -0 -0 -0 -0 -0 -0 -0 0 0 0 0 0 0 1 1 0 0 0 -0 -1 -0 0 1 1 1 1 1 1 0 nan
nan 0 0 0 0 0 0 0 1 2 2 2 2 2 3 3 2 2 2 2 2 2 2 2 1 1 1 1 0 -0 -0 -0 0 0 0 0 0 0 -0 -0 -0 -0 -0 -0 -0 -0 0 0 0 0 0 0 0 0 0 0 -0 -0 -0 -0 0 1 1 2 1 1 0 -0 nan
nan 0 0 0 0 0 0 1 1 1 2 2 2 2 2 3 2 2 2 2 2 2 1 1 1 1 1 0 -0 -0 -0 0 0 0 0 0 0 -0 -0 -0 -0 -0 -0 -0 0 0 0 0 0 0 0 0 0 0 0 -0 -0 -0 -0 -0 0 1 1 2 1 0 -0 -1 nan
nan 0 0 0 0 0 1 1 1 1 1 2 2 2 2 2 2 2 2 2 2 1 1 1 1 1 0 -0 -0 -0 0 0 0 0 0 0 -0 -0 -0 -0 -0 -0 0 -0 0 0 -0 -0 0 0 0 0 0 0 0 -0 -0 -0 -0 -0 1 1 1 1 0 -0 -1 -1 nan
nan 0 0 0 0 1 1 1 1 1 1 2 2 2 2 2 2 2 2 2 2 1 1 1 1 0 0 -0 -0 0 0 0 0 0 0 0 0 -0 -0 -0 -0 0 0 0 0 0 -0 -0 0 1 1 1 0 0 -0 -0 -1 -0 -0 0 1 2 1 0 -0 -1 -1 -1 nan
nan 0 1 1 1 1 1 1 1 1 1 2 2 2 2 2 2 2 2 2 1 1 1 1 0 0 -0 -0 -0 0 0 0 0 0 0 0 0 -0 -0 -0 -0 0 0 0 0 -0 -0 -0 0 1 1 1 1 0 -0 -1 -1 -1 -0 1 2 2 1 -0 -1 -1 -2 -1 nan
nan 0 1 1 1 1 1 1 1 2 2 2 2 2 2 2 2 2 2 1 1 1 1 0 0 -0 -0 -0 0 0 0 0 0 0 -0 -0 -0 -0 -0 -0 0 0 0 0 -0 -0 -0 -0 0 1 1 1 0 0 -0 -1 -1 -0 0 1 2 1 0 -0 -1 -2 -2 -1 nan
nan nan nan nan nan nan nan nan nan nan nan nan nan nan nan nan nan nan nan nan nan nan nan nan nan nan nan nan nan nan nan nan nan nan nan nan nan nan nan nan nan nan nan nan nan nan nan nan nan nan nan nan nan nan nan nan nan nan nan nan nan nan nan nan nan nan nan nan nan
Wind_Speed
22 22 22 22 21 21 20 20 20 20 20 21 22 22 23 24 25 26 26 27 27 27 27 26 26 25 24 24 23 24 25 26 26 27 27 27 27 27 26 25 25 25 25 25 23 22 21 20 21 21 21 22 22 22 23 23 23 24 24 25 24 24 25 25 25 26 26 26 27
22 22 21 21 21 20 20 20 20 20 21 21 22 22 23 24 25 25 26 26 26 26 26 26 25 25 25 24 24 24 25 26 27 28 28 28 28 27 26 26 26 26 26 24 23 22 21 21 21 21 22 22 23 23 24 24 24 25 25 25 25 25 25 26 26 26 26 27 27
21 21 21 21 21 20 20 21 20 20 21 21 22 23 24 25 25 26 26 26 26 26 26 26 25 25 25 24 25 25 26 27 28 28 29 28 28 27 26 26 26 26 25 24 23 21 21 21 21 22 22 23 24 24 24 25 25 25 25 25 26 26 26 26 27 27 27 28 28
22 21 21 21 21 21 21 21 21 21 21 22 23 24 24 25 25 26 26 26 26 26 26 26 25 25 25 25 25 26 27 28 29 29 29 28 27 26 26 27 26 26 25 24 22 22 22 22 22 23 23 24 24 25 25 25 25 26 26 26 26 26 26 27 27 27 28 28 29
23 22 21 21 21 21 21 21 21 21 21 22 23 24 24 25 25 25 25 26 26 26 25 25 25 25 25 25 26 27 28 29 29 29 28 27 26 26 26 27 26 26 24 23 23 22 22 23 23 24 24 25 25 25 26 26 26 26 26 27 27 27 27 27 27 28 28 29 30
23 23 22 22 21 21 21 22 22 22 22 22 23 24 24 24 24 25 25 25 25 25 25 25 25 25 26 26 27 27 28 28 28 27 27 26 26 26 27 27 26 25 24 24 23 23 23 24 24 24 25 25 26 26 26 26 26 27 27 27 27 27 27 28 28 28 29 30 30
24 23 23 23 22 22 22 22 22 22 23 23 24 24 24 24 24 24 25 25 25 25 25 25 25 26 26 26 27 27 27 27 27 26 26 26 26 26 27 26 26 25 24 24 24 24 24 24 25 25 25 26 26 26 26 26 27 27 27 28 28 27 28 28 29 29 30 30 31
25 25 25 24 24 24 24 23 23 23 23 24 24 24 24 24 24 24 24 24 24 24 24 25 25 25 25 26 26 26 26 26 26 25 25 26 26 27 27 26 26 25 25 24 24 24 24 25 25 25 26 26 26 26 26 27 27 27 28 29 29 29 29 29 29 30 30 31 32
27 27 26 26 25 25 24 24 23 23 24 24 24 24 24 24 24 24 24 24 24 24 24 24 24 24 24 25 25 25 25 25 25 25 25 26 27 27 27 27 26 26 25 25 25 25 25 25 26 26 26 26 26 27 27 27 27 28 29 29 30 30 30 30 30 31 31 32 33
28 28 28 27 26 26 25 24 24 24 25 25 25 25 24 24 24 24 24 24 23 23 23 23 23 23 24 24 24 24 24 24 24 25 26 26 27 27 27 27 27 26 25 25 25 25 25 26 26 26 26 26 27 27 27 27 28 29 30 30 30 31 31 31 31 31 32 33 33
29 29 29 29 28 27 26 26 26 26 26 26 26 25 25 25 25 25 24 24 24 23 23 23 23 23 23 23 23 23 23 24 24 25 26 27 27 27 27 27 27 26 25 25 25 25 25 26 26 26 26 26 27 27 28 28 29 29 30 31 31 32 32 32 32 32 33 33 34
30 30 30 30 29 28 28 28 28 27 27 27 27 26 26 26 26 25 25 25 24 24 23 23 23 23 23 23 23 23 23 24 25 26 27 27 28 27 27 27 26 25 25 25 25 25 26 26 26 26 26 27 27 28 28 29 29 30 31 32 32 32 33 33 33 33 33 34 35
31 31 31 31 30 30 29 29 29 29 28 28 28 27 27 26 26 26 25 25 24 24 23 23 23 23 23 23 23 23 24 24 25 26 27 27 27 27 27 26 26 25 25 25 25 25 26 26 26 26 27 27 28 28 29 29 30 31 32 32 33 33 34 34 34 34 34 35 35
31 31 32 31 31 31 30 30 29 29 29 29 29 28 28 27 27 26 26 25 24 23 23 23 23 23 23 23 23 24 24 25 26 26 27 27 27 26 26 26 25 25 25 25 25 25 26 26 26 27 27 28 28 29 29 30 31 31 32 33 33 34 34 34 34 35 35 35 36
31 31 31 31 31 31 30 30 30 30 30 30 29 29 28 28 27 27 26 25 24 23 23 23 23 23 23 23 24 24 25 26 26 27 27 27 26 26 25 25 25 25 25 25 25 25 26 26 26 27 27 28 29 30 30 31 31 32 33 33 34 34 35 35 35 35 35 36 36
30 30 30 31 30 30 30 30 30 30 30 30 30 29 29 28 27 27 26 25 24 23 23 23 23 23 23 24 24 25 26 26 27 27 27 26 25 25 25 25 25 25 25 25 25 25 26 26 26 27 28 29 30 30 31 31 32 33 33 34 34 35 35 35 35 36 36 36 37
29 29 30 30 30 30 30 30 30 30 30 30 30 30 29 28 27 27 26 25 24 23 23 23 23 23 24 24 25 26 26 27 27 27 26 25 25 24 25 25 25 25 25 25 25 26 26 26 27 27 28 29 30 31 31 32 33 33 34 34 35 35 35 36 36 36 36 37 37
28 28 29 29 29 30 30 30 30 30 31 31 30 30 29 28 27 26 26 25 24 24 23 23 24 24 24 25 25 26 27 27 27 26 25 25 24 24 25 25 25 24 24 25 25 26 26 27 27 28 29 29 30 31 32 32 33 34 34 35 35 35 36 36 36 36 37 37 37
28 28 28 29 29 29 29 30 30 31 31 31 30 30 29 28 27 26 26 25 25 24 24 24 24 24 25 25 26 26 26 27 26 26 25 25 25 25 25 25 24 24 24 25 26 26 27 27 27 28 29 30 31 32 32 33 34 34 34 35 35 36 36 36 36 37 37 37 37
27 28 28 29 29 29 30 30 31 31 31 31 30 30 29 28 27 26 26 25 25 24 24 24 25 25 25 26 26 26 26 26 26 25 25 25 25 25 25 25 24 24 25 25 26 26 27 27 28 29 29 30 31 32 33 33 34 34 35 35 36 36 36 37 37 37 37 37 37
27 28 28 29 29 30 30 30 31 31 31 31 30 30 29 28 27 26 26 25 24 24 25 25 25 26 26 26 26 26 26 26 26 26 26 26 26 25 25 25 25 25 25 25 26 26 27 27 28 29 30 31 32 33 33 34 34 35 35 36 36 36 37 37 37 38 38 38 38
28 28 29 29 30 30 30 31 31 31 31 31 31 30 29 28 27 26 26 25 25 25 25 26 26 26 26 27 26 26 26 26 26 26 26 26 26 26 25 25 25 25 25 25 26 26 27 28 29 30 31 31 32 33 33 34 34 35 36 36 37 37 37 38 38 38 38 38 38
28 29 30 30 30 30 31 31 31 31 31 31 31 30 29 28 27 26 26 25 25 25 26 26 26 26 27 27 27 27 27 27 27 27 27 27 26 26 26 25 25 26 26 25 26 26 27 28 29 30 31 32 33 33 34 34 35 36 36 37 37 38 38 38 38 38 38 39 38
29 30 30 30 30 31 31 31 31 31 31 31 31 30 29 28 27 26 26 25 25 25 26 26 26 26 27 27 27 27 27 28 28 28 28 27 27 26 26 26 26 26 26 26 26 26 27 29 30 31 32 32 33 34 34 35 35 36 36 37 38 38 39 39 39 39 39 39 39
30 30 30 30 31 31 31 31 31 31 31 31 30 29 28 28 27 26 25 25 25 25 25 26 26 26 27 27 28 28 28 28 28 28 28 27 26 26 26 26 26 26 26 26 26 27 27 29 30 31 32 32 33 34 34 35 35 36 36 37 38 38 39 39 39 39 39 39 39
30 30 30 30 30 30 30 30 30 30 30 30 30 29 28 27 27 26 25 24 24 25 25 26 26 27 27 28 28 28 29 29 29 28 28 27 26 26 26 26 26 26 26 26 26 27 27 28 29 30 31 32 33 34 34 35 35 36 36 37 37 38 39 39 40 40 39 39 39
30 30 30 30 30 30 30 30 30 30 30 30 29 29 28 27 26 25 25 24 24 25 25 26 27 27 28 28 29 29 29 29 28 28 27 26 26 26 26 26 26 26 26 26 26 27 27 28 29 30 31 32 33 33 34 35 35 36 36 37 38 38 39 39 40 40 40 39 39
30 30 29 29 29 29 29 30 30 30 30 30 29 29 28 27 26 25 25 24 24 24 25 26 27 27 28 28 29 29 29 29 28 27 26 26 26 26 27 27 27 26 26 26 26 27 28 29 29 30 31 31 32 33 34 35 36 37 37 38 38 39 39 40 40 40 40 40 39
29 29 29 29 29 29 29 29 30 30 30 29 29 28 27 27 26 25 25 24 24 25 25 26 27 27 28 29 29 29 29 28 27 27 26 26 27 27 27 27 27 26 26 25 26 27 28 29 30 31 31 32 33 34 35 36 36 37 38 38 39 39 39 40 40 40 39 39 39
27 27 28 28 28 28 29 29 29 29 29 29 29 28 28 27 26 26 25 25 25 25 25 25 26 27 28 29 29 29 28 28 27 27 27 27 27 28 28 27 27 26 25 25 26 27 29 30 31 31 32 32 33 34 35 36 37 37 38 38 39 39 39 39 39 39 39 39 39
24 24 25 26 26 27 27 28 28 29 29 29 29 29 28 28 27 26 25 24 24 24 24 25 26 28 28 29 29 29 28 28 27 27 27 27 28 28 28 27 26 25 25 25 27 28 29 30 31 32 32 33 33 34 35 36 37 37 38 39 39 39 39 39 39 39 38 38 38
20 21 22 23 24 25 25 26 27 27 28 28 29 28 28 27 26 25 24 24 23 24 24 26 27 28 28 29 29 28 28 27 27 27 27 28 28 28 27 26 25 25 25 26 28 29 30 31 32 32 33 33 34 35 35 36 37 37 38 39 39 39 39 39 38 38 38 37 36
18 19 20 20 21 22 23 24 25 26 27 27 28 28 28 27 26 25 24 24 24 24 25 26 27 27 28 28 28 28 28 27 27 27 28 28 28 27 27 26 25 25 26 27 28 29 30 31 32 33 33 34 34 35 35 36 37 38 38 39 39 39 38 38 38 37 36 35 34
17 17 18 18 19 20 21 22 23 25 26 26 27 27 27 26 25 25 24 24 24 24 25 26 26 27 27 28 28 28 28 28 28 28 28 27 27 27 26 26 25 26 26 27 29 30 31 32 32 33 33 34 34 35 36 36 37 38 38 38 39 38 38 37 37 36 35 33 32
16 16 17 17 18 19 20 21 22 23 25 26 26 26 26 26 25 25 24 24 24 24 25 25 26 27 27 28 28 28 28 28 28 28 27 27 26 26 26 26 26 26 27 28 29 30 31 32 33 33 33 34 34 35 36 36 37 37 38 38 38 38 37 36 35 34 33 31 29
15 15 15 16 17 18 19 20 21 22 23 24 25 25 25 25 24 24 23 23 23 24 25 26 26 27 28 28 28 28 28 28 28 27 27 26 26 25 26 26 26 27 27 28 29 31 32 32 33 33 33 34 34 35 36 36 37 37 37 38 38 38 37 35 34 33 31 29 27
14 14 15 15 16 17 18 19 19 20 21 22 23 23 24 24 23 23 23 23 24 25 25 26 26 27 27 28 28 28 28 28 27 27 26 25 25 25 26 27 28 28 28 29 30 31 32 33 33 33 33 34 34 35 35 36 36 36 37 37 37 36 36 34 32 31 29 27 25
14 14 15 15 16 17 17 18 18 19 19 20 21 22 22 22 23 23 23 23 24 25 25 26 26 27 27 27 28 28 28 27 27 26 25 24 25 25 26 28 28 28 29 29 31 32 32 33 33 33 33 33 34 34 35 35 35 35 36 36 36 35 34 32 31 29 28 26 24
15 15 16 16 17 17 17 17 17 18 18 19 20 21 21 22 22 22 23 23 24 24 25 26 27 27 27 28 28 28 27 26 25 25 24 24 24 26 27 28 29 29 30 30 31 32 32 33 32 32 32 33 33 33 34 34 34 34 34 34 33 33 32 30 29 28 27 25 23
17 17 18 18 18 18 17 17 17 18 18 19 20 20 21 21 22 22 22 23 24 25 26 26 27 27 28 28 28 27 26 25 24 24 24 24 25 26 27 28 30 30 31 31 32 32 32 32 32 32 32 32 32 32 33 33 32 32 32 32 31 31 30 28 27 26 25 24 23
19 19 19 19 18 18 18 18 18 18 19 19 20 20 20 20 21 22 23 23 24 25 26 27 27 28 28 28 27 26 25 24 23 23 24 24 25 26 27 29 30 31 32 32 32 32 32 32 32 31 31 31 31 31 31 31 30 30 30 30 29 29 28 27 26 25 24 23 23
Wind_Direction
267 266 265 265 264 264 265 266 267 269 270 270 271 271 272 273 273 274 275 276 276 277 278 280 281 282 282 282 280 277 274 273 271 271 271 271 271 271 270 270 272 276 281 285 288 290 293 296 299 302 304 306 308 310 311 313 313 312 311 311 311 312 313 314 316 317 316 315 313
263 262 262 262 262 263 264 266 269 271 272 273 273 273 273 273 274 274 275 275 276 277 278 278 278 279 279 279 277 275 273 271 271 270 270 270 271 270 269 270 273 277 282 286 288 291 293 296 298 300 302 304 306 308 310 311 311 310 310 310 311 311 312 313 315 315 314 313 312
261 259 258 258 260 262 265 270 273 276 277 276 276 275 274 274 274 274 274 275 275 275 275 275 275 275 276 275 274 272 270 269 269 269 269 270 270 269 269 271 275 279 284 287 289 291 292 294 296 298 300 302 304 307 308 309 309 308 308 309 310 311 312 313 314 313 312 311 310
260 257 256 257 260 265 270 275 278 280 279 278 276 275 273 273 273 273 273 273 272 271 271 271 272 272 272 272 271 269 268 267 267 267 268 269 269 269 269 272 277 281 284 287 288 289 290 292 294 296 298 300 303 305 307 308 308 307 308 309 310 311 312 312 312 312 311 310 309
261 258 258 260 264 270 274 278 280 280 279 277 274 273 271 271 270 270 270 270 269 269 269 270 270 270 269 268 267 266 265 265 265 266 268 269 268 269 271 274 278 281 284 285 285 286 287 289 291 294 297 299 301 303 305 307 307 307 308 309 310 311 311 311 311 310 310 309 309
262 261 261 264 267 272 275 278 279 279 278 275 272 270 270 269 269 268 268 268 268 268 268 267 267 266 265 264 264 263 263 263 265 266 268 268 268 269 271 275 278 281 282 281 282 282 284 287 290 293 295 298 300 303 305 306 306 307 308 309 309 310 310 310 310 309 309 308 308
263 263 263 265 269 273 276 278 279 278 276 273 271 270 270 269 268 268 267 268 267 266 265 263 262 262 261 261 261 261 262 263 265 266 267 267 268 269 272 275 277 278 278 278 278 280 283 286 289 292 295 297 300 302 304 306 306 307 307 309 309 309 309 309 309 308 308 308 308
264 264 265 267 270 273 276 278 278 277 275 273 272 272 271 270 269 268 267 266 265 263 262 261 260 260 259 259 260 261 262 263 265 266 266 266 267 269 272 274 274 274 274 275 276 278 282 286 289 291 294 297 300 303 305 306 306 306 307 308 309 309 308 308 308 308 308 308 308
263 264 266 268 270 273 276 277 277 276 275 274 273 273 271 270 268 267 266 265 264 263 261 260 259 259 259 259 259 261 262 263 265 265 265 266 267 269 270 271 271 271 271 272 275 278 282 286 288 291 294 297 300 303 305 305 306 306 307 308 308 308 308 308 308 308 307 307 307
263 264 266 268 270 273 275 276 276 276 275 274 273 272 271 269 268 267 266 265 264 263 261 260 259 258 258 258 259 261 262 263 264 264 265 265 266 268 268 269 269 268 269 271 274 279 282 286 289 292 295 298 301 303 304 305 305 306 306 307 307 307 308 308 308 307 307 307 306
262 264 265 267 270 272 273 275 275 274 274 274 273 272 270 269 268 268 267 266 264 263 262 261 260 259 259 259 260 261 261 262 262 263 263 264 265 266 266 266 266 266 268 271 275 279 283 286 289 292 295 298 301 303 304 305 305 305 306 306 307 307 307 307 307 307 307 306 306
261 262 264 266 268 270 271 273 273 274 273 273 272 271 270 269 269 268 267 266 265 264 264 263 261 261 260 260 260 260 260 260 260 261 261 262 263 263 263 263 263 265 267 271 276 280 283 286 289 293 296 299 301 303 304 305 305 305 306 306 306 307 307 307 307 307 306 305 305
259 260 262 264 266 268 269 271 272 272 272 272 272 271 271 270 269 268 267 266 266 265 264 263 262 261 260 260 259 258 258 258 258 259 259 260 260 260 260 261 262 264 268 272 277 280 284 287 290 294 297 299 301 303 304 304 305 305 305 306 306 306 306 306 306 306 305 305 304
257 259 261 263 265 267 268 269 270 270 271 271 271 271 271 270 269 268 267 267 266 265 264 262 261 260 259 258 257 257 256 256 256 256 256 257 257 257 258 259 262 265 269 274 278 281 284 288 291 294 297 300 301 302 303 304 304 304 305 305 305 305 305 305 305 304 304 304 304
256 258 260 262 264 265 266 267 268 268 269 269 270 270 270 270 269 268 268 267 266 264 263 260 259 258 257 256 255 255 254 254 253 253 254 254 255 256 257 260 263 267 271 275 279 282 285 288 292 295 297 299 301 302 303 303 303 303 304 304 304 304 304 303 303 303 303 303 303
256 257 259 261 262 263 264 265 266 267 268 269 270 270 270 270 270 269 268 267 265 263 260 258 257 255 254 253 252 252 251 251 251 251 251 252 254 256 258 261 264 268 272 276 280 283 286 289 292 295 297 299 300 301 301 302 302 302 302 302 302 302 302 302 302 301 302 302 303
256 257 258 259 261 262 263 264 265 266 267 268 270 270 271 271 270 270 268 267 264 261 258 256 255 254 252 251 250 249 249 249 249 250 251 252 254 256 259 262 266 270 274 278 281 284 287 290 293 295 296 298 299 299 300 300 300 300 300 300 300 300 300 300 300 301 301 302 302
255 256 257 258 259 261 262 263 265 266 267 269 270 271 272 272 271 270 268 266 263 260 257 255 253 252 251 250 249 248 248 248 249 250 251 253 255 257 260 264 268 272 275 279 282 285 287 290 292 294 295 296 297 297 298 298 298 299 299 299 299 299 299 299 299 300 301 301 302
254 255 256 257 258 260 261 263 265 266 268 270 271 272 272 271 270 269 267 265 262 259 255 253 251 250 249 249 248 248 248 248 249 250 252 254 256 258 262 265 269 273 276 279 282 285 287 290 292 293 294 295 295 296 296 297 297 298 298 298 298 298 298 298 299 300 301 302 303
254 255 256 257 258 260 262 263 265 267 268 269 270 271 271 270 270 268 266 263 261 258 255 252 250 249 248 248 248 248 248 248 249 250 252 254 257 260 263 267 271 274 277 280 283 285 288 290 291 292 292 293 293 294 295 295 296 297 297 297 297 297 298 298 299 300 301 302 304
254 255 256 257 259 260 262 264 265 267 268 269 269 270 270 269 268 267 266 264 261 258 254 252 249 248 248 248 247 248 248 248 249 251 253 255 258 261 265 269 272 275 278 281 283 286 288 289 290 291 291 292 292 293 294 295 296 296 297 297 297 297 298 298 299 301 302 303 304
255 256 257 258 259 261 262 264 265 266 267 268 269 269 269 269 268 268 266 264 260 257 253 251 250 249 248 248 248 248 249 249 249 251 253 256 259 263 267 270 273 276 279 282 284 286 288 288 289 289 290 291 292 293 294 295 296 296 296 297 297 297 298 299 301 302 303 304 305
256 257 258 259 260 261 262 263 264 265 267 268 269 269 270 270 269 268 266 263 259 256 253 252 250 250 249 249 249 249 248 249 250 251 254 257 260 264 268 271 275 278 280 283 285 286 287 287 288 289 289 291 292 293 294 296 296 297 297 298 298 299 300 301 302 303 304 305 305
257 258 258 259 260 261 262 263 265 266 267 269 270 271 271 270 269 267 265 262 259 256 254 253 251 250 249 249 248 248 248 248 249 251 254 257 261 265 269 273 276 279 281 283 284 285 286 286 287 289 290 291 293 294 296 297 298 299 299 299 300 300 301 302 303 304 304 305 305
257 258 259 259 261 262 263 264 265 267 268 270 271 271 271 270 268 266 264 262 259 257 255 253 252 250 249 248 247 247 247 248 249 251 255 259 263 267 271 274 277 279 281 282 283 284 285 286 288 290 291 293 295 297 298 299 300 300 300 300 300 301 301 302 303 303 304 304 304
258 258 259 261 262 263 264 266 267 269 270 271 271 271 270 269 268 266 264 262 259 257 255 253 252 250 248 247 246 246 246 248 250 252 256 260 265 269 273 275 278 279 280 281 281 282 284 286 288 291 293 295 297 299 300 300 300 300 300 300 300 300 300 301 302 303 304 304 303
259 260 261 262 264 265 266 268 269 270 270 271 271 271 270 269 268 266 264 262 260 257 255 253 251 250 248 246 245 245 246 248 251 254 258 263 267 270 273 275 277 278 278 279 280 281 283 286 288 291 294 296 298 299 300 300 299 299 298 298 298 299 299 300 302 303 304 305 304
261 262 264 265 266 267 268 269 270 270 271 271 272 272 271 270 268 266 264 261 259 257 255 252 251 249 248 246 245 246 247 249 253 256 261 265 269 271 273 274 275 275 276 277 279 281 284 286 288 291 294 296 298 299 299 298 298 298 297 297 298 299 300 301 302 303 304 305 304
264 265 266 266 268 268 269 270 271 271 272 273 273 273 272 270 268 266 264 261 258 256 254 252 251 249 247 246 246 247 248 251 254 259 263 267 270 272 273 273 273 274 275 277 279 282 284 286 289 292 294 296 297 298 298 297 297 297 297 297 298 299 300 301 302 303 304 304 304
266 266 267 267 268 269 270 271 272 273 274 274 274 273 272 270 269 266 264 261 259 257 255 253 251 249 247 247 247 248 249 252 256 260 264 268 270 271 272 272 272 273 275 278 280 283 285 287 290 293 295 296 297 297 297 297 296 296 296 297 298 299 300 302 303 303 303 303 303
266 267 267 268 269 270 271 272 273 274 274 274 274 273 272 271 269 267 265 263 261 258 256 252 250 249 248 248 248 249 251 254 258 262 265 268 270 270 271 271 272 274 277 280 282 284 286 289 291 294 296 297 297 297 296 296 296 296 296 297 298 300 301 302 303 303 303 302 302
266 267 268 269 270 271 272 273 274 274 274 274 274 273 272 271 270 269 267 264 261 257 254 251 249 248 248 248 248 250 253 256 260 263 266 268 269 269 270 271 273 275 278 281 283 285 288 290 292 295 296 297 297 296 296 295 295 295 296 297 299 300 302 302 302 302 302 301 302
267 268 269 270 271 273 274 274 274 274 274 274 274 273 273 272 271 269 266 263 259 256 253 251 250 249 248 248 250 252 254 257 261 263 265 267 268 268 269 271 274 277 280 282 284 287 289 292 294 296 297 297 297 296 295 295 295 295 296 298 299 300 301 301 301 301 300 301 302
270 271 272 273 274 274 275 275 275 275 274 274 274 273 273 271 269 267 265 262 259 257 255 253 251 250 249 249 250 253 255 258 261 263 265 266 267 268 269 272 275 278 281 284 286 288 291 293 295 296 297 297 296 295 295 294 295 295 297 298 300 300 301 300 300 300 300 301 303
276 276 276 276 276 277 276 276 276 276 275 275 275 274 273 271 270 268 265 263 260 257 255 252 250 249 249 249 251 253 256 259 262 263 264 265 266 268 270 273 276 279 282 285 287 290 292 294 296 297 297 297 296 295 294 294 295 296 297 299 300 300 300 300 299 299 300 301 303
279 279 279 279 279 279 279 278 278 277 277 276 276 275 273 272 270 268 266 263 259 256 253 251 249 248 248 250 252 255 258 260 261 262 263 264 266 269 271 274 276 279 283 286 289 291 293 295 296 297 297 296 296 295 295 295 295 297 298 299 299 299 299 299 299 300 300 302 303
284 283 282 281 281 281 281 281 280 279 278 278 277 276 274 272 270 267 264 261 257 254 252 251 249 249 250 252 254 256 258 260 260 261 263 264 267 270 273 275 277 280 284 287 290 292 294 295 297 297 297 296 295 295 295 295 296 297 297 298 298 298 298 298 299 300 301 302 304
290 288 287 285 284 284 284 283 282 281 280 279 278 276 273 271 268 265 262 259 256 254 252 251 250 250 252 253 255 256 258 259 260 261 263 265 268 271 274 276 278 281 285 288 290 292 294 296 297 297 297 296 295 294 295 295 296 296 297 297 297 297 297 298 299 300 301 303 305
297 294 292 289 288 287 286 285 283 282 281 280 277 274 271 268 266 263 261 259 256 254 252 251 251 251 252 254 255 256 257 259 260 262 264 267 269 271 274 277 280 283 286 289 291 293 295 296 297 297 296 295 294 294 294 295 295 295 296 296 297 297 297 297 298 300 301 303 306
299 297 294 292 290 288 286 284 283 281 279 277 274 272 269 266 264 262 260 257 255 253 251 251 251 252 253 254 255 256 258 259 261 263 265 268 270 273 276 279 282 284 287 290 293 295 296 297 297 296 295 294 293 293 294 294 295 295 295 296 296 296 295 296 298 300 302 305 308
299 298 296 294 291 289 286 283 280 278 275 272 271 269 267 265 262 259 257 254 252 251 250 251 251 252 253 255 256 257 258 259 261 263 266 269 272 275 278 281 284 286 289 292 294 296 297 297 297 295 294 293 293 293 294 294 294 294 293 293 293 294 295 297 299 302 304 308 312
Height
1513 1513 1513 1513 1513 1513 1513 1513 1514 1514 1514 1514 1514 1514 1514 1514 1514 1514 1514 1514 1514 1514 1514 1515 1515 1516 1516 1517 1519 1519 1520 1521 1521 1522 1522 1522 1523 1523 1523 1524 1524 1523 1523 1523 1522 1522 1521 1521 1520 1519 1519 1519 1518 1518 1517 1517 1516 1515 1515 1514 1513 1512 1511 1510 1509 1509 1508 1507 1506
1511 1511 1512 1512 1512 1512 1512 1512 1512 1512 1512 1512 1512 1512 1512 1512 1512 1512 1512 1512 1512 1513 1513 1513 1514 1514 1514 1515 1516 1517 1518 1519 1519 1519 1520 1520 1521 1521 1521 1521 1521 1521 1521 1520 1520 1520 1519 1519 1518 1518 1517 1517 1516 1516 1515 1515 1514 1514 1513 1512 1511 1510 1509 1508 1507 1506 1505 1505 1504
1509 1510 1510 1510 1510 1510 1510 1510 1510 1510 1510 1510 1510 1510 1510 1510 1510 1510 1510 1510 1510 1511 1511 1511 1511 1512 1513 1514 1514 1515 1516 1517 1517 1518 1518 1518 1519 1519 1519 1519 1519 1519 1519 1518 1518 1518 1517 1517 1516 1516 1516 1515 1515 1514 1514 1513 1513 1512 1510 1510 1509 1508 1507 1506 1505 1504 1503 1502 1501
1508 1508 1508 1508 1508 1508 1508 1508 1508 1508 1508 1509 1509 1509 1509 1508 1508 1508 1508 1509 1509 1509 1509 1509 1509 1510 1511 1512 1513 1514 1514 1514 1515 1515 1516 1516 1517 1517 1517 1517 1517 1517 1516 1516 1516 1516 1515 1515 1515 1514 1514 1514 1513 1512 1512 1511 1510 1509 1508 1507 1507 1505 1504 1503 1503 1502 1501 1500 1499
1506 1506 1506 1506 1506 1506 1506 1506 1506 1506 1507 1507 1507 1507 1506 1506 1506 1506 1506 1506 1506 1507 1507 1508 1508 1509 1509 1510 1511 1511 1512 1513 1513 1513 1514 1514 1515 1515 1515 1515 1514 1514 1514 1514 1514 1514 1514 1514 1513 1513 1512 1512 1511 1510 1510 1509 1508 1507 1506 1505 1504 1503 1502 1501 1500 1499 1499 1497 1496
1504 1504 1504 1504 1504 1505 1505 1505 1505 1505 1505 1505 1504 1504 1504 1504 1504 1504 1504 1504 1504 1505 1506 1506 1506 1507 1507 1508 1509 1509 1510 1510 1511 1511 1512 1512 1513 1513 1513 1513 1513 1512 1512 1512 1512 1512 1512 1512 1511 1511 1510 1509 1509 1509 1508 1507 1506 1505 1504 1503 1502 1501 1500 1499 1498 1497 1496 1495 1494
1502 1502 1503 1503 1503 1503 1503 1503 1503 1503 1503 1503 1503 1502 1502 1502 1503 1503 1503 1503 1503 1504 1504 1504 1504 1505 1505 1506 1506 1507 1508 1508 1509 1509 1509 1510 1510 1510 1510 1510 1510 1510 1510 1511 1511 1511 1510 1510 1509 1509 1508 1508 1507 1506 1505 1504 1504 1502 1501 1500 1499 1499 1498 1497 1496 1495 1494 1493 1492
1500 1500 1500 1501 1501 1501 1501 1501 1501 1501 1501 1501 1500 1500 1500 1500 1501 1501 1501 1501 1501 1501 1502 1502 1502 1503 1503 1504 1504 1505 1505 1506 1506 1507 1507 1508 1508 1508 1508 1508 1509 1509 1509 1509 1509 1509 1509 1508 1507 1507 1506 1505 1504 1504 1503 1502 1501 1500 1499 1498 1497 1497 1496 1495 1494 1493 1492 1490 1489
1498 1499 1499 1499 1499 1499 1499 1499 1499 1499 1499 1499 1499 1499 1499 1499 1499 1499 1499 1499 1499 1500 1500 1500 1500 1501 1501 1502 1502 1503 1503 1504 1504 1505 1505 1505 1506 1506 1506 1506 1507 1507 1507 1507 1507 1507 1506 1506 1505 1504 1504 1503 1502 1501 1501 1500 1499 1497 1496 1496 1495 1494 1494 1493 1492 1490 1489 1488 1487
1496 1496 1497 1497 1497 1498 1498 1498 1497 1497 1497 1497 1497 1497 1497 1497 1497 1497 1497 1497 1498 1498 1498 1498 1498 1499 1499 1499 1500 1500 1501 1501 1502 1503 1503 1503 1504 1504 1504 1504 1505 1505 1505 1505 1505 1504 1504 1503 1503 1502 1501 1501 1500 1499 1498 1498 1496 1495 1494 1493 1493 1492 1491 1490 1489 1488 1487 1486 1484
1494 1495 1495 1495 1495 1496 1496 1495 1495 1495 1495 1494 1494 1495 1495 1495 1495 1495 1495 1495 1496 1496 1496 1496 1496 1497 1497 1497 1498 1498 1499 1499 1500 1500 1501 1501 1501 1502 1502 1502 1503 1503 1503 1503 1503 1502 1502 1501 1500 1499 1499 1499 1498 1497 1496 1495 1494 1493 1492 1491 1490 1489 1488 1488 1487 1486 1484 1483 1482
1492 1493 1493 1493 1494 1494 1494 1493 1493 1493 1493 1493 1493 1493 1493 1493 1493 1493 1494 1494 1494 1494 1494 1494 1494 1494 1495 1495 1496 1496 1497 1498 1498 1498 1499 1499 1499 1500 1500 1500 1500 1501 1501 1501 1501 1500 1499 1499 1498 1497 1497 1496 1495 1494 1494 1493 1491 1490 1489 1489 1488 1487 1486 1485 1484 1484 1482 1481 1480
1490 1491 1491 1491 1491 1491 1491 1491 1491 1491 1490 1490 1490 1491 1491 1491 1491 1491 1491 1491 1491 1492 1492 1492 1492 1493 1493 1494 1494 1494 1495 1495 1496 1496 1497 1497 1497 1498 1498 1498 1498 1499 1499 1499 1498 1498 1497 1496 1495 1495 1494 1494 1493 1492 1491 1490 1489 1488 1487 1486 1485 1484 1483 1482 1482 1481 1480 1479 1477
1488 1488 1489 1489 1489 1489 1489 1489 1489 1488 1488 1488 1489 1489 1489 1489 1489 1489 1489 1489 1489 1490 1490 1490 1491 1491 1491 1492 1492 1493 1493 1494 1494 1494 1494 1495 1495 1495 1496 1496 1496 1496 1496 1496 1496 1495 1494 1494 1493 1492 1492 1491 1490 1489 1489 1488 1486 1485 1484 1483 1483 1482 1481 1480 1479 1479 1478 1476 1475
1486 1486 1486 1486 1486 1486 1486 1486 1486 1486 1486 1486 1486 1487 1487 1487 1487 1487 1487 1487 1488 1488 1488 1489 1489 1489 1489 1490 1491 1491 1491 1492 1492 1492 1492 1493 1493 1493 1494 1494 1494 1494 1494 1494 1493 1493 1492 1491 1491 1490 1489 1488 1487 1487 1486 1485 1484 1483 1482 1481 1480 1479 1479 1478 1477 1476 1475 1474 1473
1483 1484 1484 1484 1484 1484 1484 1484 1484 1484 1484 1484 1484 1484 1485 1485 1485 1485 1485 1486 1486 1486 1486 1486 1487 1487 1488 1489 1489 1489 1489 1490 1490 1490 1490 1490 1491 1491 1491 1492 1492 1492 1491 1491 1491 1490 1489 1489 1488 1488 1487 1486 1485 1484 1483 1483 1482 1481 1480 1479 1478 1477 1476 1475 1474 1474 1472 1471 1470
1481 1481 1481 1481 1481 1481 1481 1482 1482 1482 1482 1482 1482 1483 1483 1483 1483 1484 1484 1484 1484 1484 1484 1484 1485 1485 1486 1486 1487 1487 1487 1488 1488 1488 1488 1488 1489 1489 1489 1489 1489 1489 1489 1489 1488 1488 1487 1487 1486 1485 1484 1483 1482 1481 1481 1480 1479 1478 1477 1477 1476 1475 1474 1473 1472 1471 1469 1469 1467
1478 1479 1479 1479 1479 1479 1479 1479 1479 1480 1480 1480 1480 1480 1481 1481 1481 1481 1482 1482 1482 1482 1482 1483 1483 1484 1484 1484 1484 1485 1485 1485 1485 1486 1486 1487 1487 1487 1487 1487 1487 1487 1487 1486 1486 1485 1485 1484 1484 1483 1482 1481 1480 1479 1478 1478 1477 1476 1475 1474 1473 1472 1471 1470 1469 1468 1467 1466 1464
1476 1476 1476 1477 1477 1477 1477 1477 1478 1478 1478 1478 1478 1479 1479 1479 1479 1479 1479 1479 1480 1480 1480 1481 1481 1482 1482 1482 1482 1483 1483 1483 1484 1484 1484 1485 1485 1485 1485 1485 1485 1485 1484 1484 1483 1483 1483 1482 1481 1481 1479 1479 1478 1477 1476 1475 1474 1473 1472 1471 1470 1469 1469 1468 1466 1465 1464 1463 1462
1474 1474 1474 1474 1474 1475 1475 1475 1475 1476 1476 1476 1476 1476 1476 1477 1477 1477 1477 1477 1478 1478 1479 1479 1479 1479 1480 1480 1480 1480 1481 1481 1482 1482 1483 1483 1483 1483 1483 1483 1483 1483 1482 1481 1481 1481 1480 1480 1479 1478 1477 1476 1475 1474 1474 1473 1471 1470 1469 1469 1468 1467 1466 1465 1464 1462 1461 1460 1459
1471 1472 1472 1472 1473 1473 1473 1473 1474 1474 1474 1474 1474 1474 1474 1474 1474 1474 1475 1475 1476 1476 1476 1477 1477 1477 1477 1478 1478 1479 1479 1479 1480 1480 1480 1481 1481 1481 1481 1481 1481 1480 1480 1479 1479 1479 1478 1478 1477 1476 1475 1474 1473 1472 1471 1470 1469 1468 1467 1466 1465 1464 1463 1462 1460 1459 1458 1457 1456
1469 1469 1470 1470 1470 1471 1471 1471 1471 1471 1471 1471 1471 1471 1472 1472 1472 1472 1473 1473 1474 1474 1474 1474 1474 1475 1475 1476 1476 1477 1477 1477 1478 1478 1478 1479 1479 1479 1479 1479 1479 1478 1478 1477 1477 1476 1476 1475 1474 1474 1473 1472 1470 1469 1468 1467 1466 1465 1464 1463 1462 1461 1460 1459 1457 1456 1455 1454 1453
1467 1467 1468 1468 1468 1469 1469 1469 1469 1469 1469 1469 1469 1469 1469 1469 1470 1470 1470 1471 1471 1471 1471 1472 1472 1473 1473 1474 1474 1474 1475 1475 1475 1476 1476 1477 1477 1477 1477 1477 1476 1476 1475 1475 1475 1474 1474 1473 1472 1471 1470 1469 1468 1467 1465 1464 1463 1462 1460 1459 1458 1457 1456 1455 1454 1453 1452 1451 1449
1465 1465 1465 1466 1466 1466 1466 1466 1466 1466 1466 1466 1467 1467 1467 1467 1467 1468 1468 1468 1468 1469 1469 1469 1470 1471 1471 1472 1472 1472 1473 1473 1473 1474 1474 1474 1475 1475 1475 1475 1474 1474 1474 1473 1473 1472 1471 1470 1469 1469 1468 1466 1465 1464 1462 1461 1460 1459 1457 1456 1455 1454 1453 1452 1451 1450 1449 1448 1446
1463 1463 1463 1463 1464 1464 1464 1464 1464 1464 1464 1464 1464 1464 1464 1465 1465 1465 1465 1465 1466 1466 1467 1467 1468 1469 1469 1469 1470 1470 1470 1471 1471 1472 1472 1473 1473 1473 1473 1473 1472 1472 1472 1471 1471 1470 1469 1468 1467 1466 1464 1463 1462 1460 1459 1458 1457 1456 1454 1453 1452 1450 1449 1448 1448 1447 1446 1445 1444
1460 1461 1461 1461 1461 1462 1462 1462 1462 1462 1462 1462 1462 1462 1462 1462 1463 1463 1463 1463 1464 1464 1465 1465 1466 1466 1467 1467 1468 1468 1468 1469 1469 1470 1471 1471 1471 1471 1471 1470 1470 1470 1470 1469 1469 1468 1467 1466 1465 1464 1462 1461 1459 1458 1456 1455 1454 1453 1452 1450 1449 1448 1447 1445 1444 1444 1443 1442 1441
1458 1459 1459 1459 1459 1459 1459 1460 1460 1460 1460 1460 1460 1460 1460 1460 1460 1461 1461 1461 1462 1462 1463 1463 1464 1464 1465 1465 1466 1466 1466 1467 1468 1469 1469 1469 1469 1469 1469 1469 1468 1468 1468 1467 1466 1466 1465 1464 1463 1462 1460 1459 1457 1455 1454 1453 1451 1450 1449 1448 1447 1445 1444 1443 1442 1441 1440 1439 1438
1456 1457 1457 1457 1457 1457 1458 1458 1458 1458 1457 1458 1458 1458 1458 1458 1458 1459 1459 1459 1460 1460 1460 1461 1462 1462 1463 1463 1464 1464 1465 1466 1466 1467 1467 1467 1467 1467 1466 1466 1466 1466 1465 1465 1464 1463 1463 1462 1461 1460 1458 1457 1455 1453 1452 1450 1449 1448 1447 1445 1444 1443 1442 1440 1439 1438 1437 1436 1434
1454 1455 1455 1455 1455 1455 1455 1455 1455 1455 1455 1455 1455 1456 1456 1456 1456 1456 1457 1457 1458 1458 1459 1459 1460 1460 1461 1461 1462 1462 1463 1464 1464 1464 1465 1464 1464 1464 1464 1464 1464 1464 1463 1463 1462 1461 1460 1459 1458 1457 1456 1454 1453 1451 1449 1448 1446 1445 1444 1443 1441 1440 1439 1438 1437 1435 1434 1433 1431
1453 1453 1453 1453 1453 1453 1453 1453 1453 1453 1453 1453 1454 1454 1454 1454 1454 1454 1455 1455 1456 1456 1457 1458 1458 1458 1459 1459 1460 1461 1461 1462 1462 1462 1462 1462 1462 1462 1462 1462 1461 1461 1461 1461 1460 1459 1458 1457 1456 1455 1454 1452 1450 1449 1447 1445 1444 1443 1441 1440 1439 1438 1436 1435 1434 1433 1431 1430 1429
1450 1451 1451 1451 1451 1451 1451 1451 1451 1451 1451 1451 1451 1451 1451 1451 1452 1452 1453 1454 1454 1455 1455 1456 1456 1456 1457 1457 1458 1459 1459 1460 1460 1460 1460 1460 1460 1459 1459 1459 1459 1459 1459 1458 1458 1457 1455 1454 1453 1452 1451 1449 1448 1446 1444 1443 1441 1440 1439 1437 1436 1435 1434 1432 1431 1430 1429 1427 1426
1449 1449 1449 1449 1449 1449 1449 1449 1449 1449 1449 1449 1449 1449 1449 1449 1450 1450 1451 1452 1453 1453 1454 1454 1454 1454 1455 1456 1456 1457 1457 1458 1458 1458 1458 1458 1457 1457 1457 1457 1457 1457 1456 1456 1455 1454 1453 1452 1451 1449 1448 1447 1445 1444 1442 1440 1439 1437 1436 1435 1434 1432 1431 1430 1429 1427 1426 1425 1424
1447 1447 1447 1447 1447 1447 1447 1447 1447 1447 1447 1447 1447 1447 1447 1448 1448 1449 1449 1450 1450 1451 1451 1452 1452 1453 1453 1454 1454 1455 1455 1456 1456 1456 1456 1455 1455 1454 1454 1454 1454 1454 1454 1454 1453 1451 1450 1449 1448 1447 1446 1444 1443 1441 1439 1438 1436 1435 1433 1432 1431 1430 1429 1427 1426 1425 1424 1423 1422
1445 1445 1445 1445 1445 1445 1445 1445 1445 1445 1445 1445 1445 1445 1445 1446 1446 1447 1447 1448 1449 1449 1449 1450 1450 1451 1452 1452 1453 1453 1453 1454 1454 1454 1453 1453 1453 1452 1452 1452 1452 1452 1452 1451 1450 1449 1448 1447 1446 1444 1443 1442 1440 1438 1437 1435 1434 1432 1431 1429 1428 1427 1426 1425 1424 1422 1421 1420 1419
1444 1444 1444 1443 1443 1443 1443 1443 1443 1443 1443 1443 1443 1443 1444 1444 1444 1445 1445 1446 1447 1447 1448 1448 1449 1449 1449 1450 1450 1451 1451 1451 1451 1451 1451 1450 1450 1450 1449 1449 1450 1450 1449 1449 1447 1446 1445 1444 1443 1442 1441 1439 1437 1436 1434 1433 1431 1429 1428 1427 1425 1424 1423 1422 1421 1420 1419 1418 1417
1442 1442 1441 1441 1441 1441 1441 1441 1441 1441 1441 1441 1441 1441 1442 1442 1443 1443 1444 1444 1445 1445 1445 1446 1446 1447 1448 1448 1448 1449 1449 1449 1449 1449 1448 1448 1448 1447 1447 1447 1447 1447 1447 1446 1445 1444 1443 1442 1441 1439 1438 1436 1434 1433 1431 1430 1428 1427 1425 1424 1423 1421 1420 1419 1419 1418 1417 1416 1415
1440 1440 1439 1439 1439 1439 1439 1439 1439 1439 1439 1439 1439 1439 1440 1440 1441 1441 1442 1442 1443 1443 1444 1444 1444 1445 1445 1446 1446 1447 1447 1447 1446 1446 1446 1446 1446 1445 1445 1444 1445 1445 1444 1444 1443 1442 1441 1439 1438 1437 1435 1434 1432 1430 1429 1427 1425 1424 1423 1421 1420 1419 1418 1417 1416 1415 1414 1414 1413
1438 1438 1437 1437 1437 1437 1437 1437 1437 1436 1437 1437 1437 1438 1438 1439 1439 1439 1440 1440 1441 1441 1442 1442 1443 1443 1444 1444 1444 1444 1444 1444 1444 1444 1444 1444 1444 1443 1443 1442 1442 1442 1442 1441 1440 1439 1438 1437 1436 1434 1433 1431 1429 1428 1426 1424 1423 1422 1420 1419 1417 1416 1415 1414 1414 1413 1412 1412 1411
1436 1436 1435 1435 1435 1435 1434 1434 1434 1434 1435 1435 1435 1436 1436 1436 1437 1437 1438 1438 1439 1439 1440 1440 1441 1441 1442 1442 1442 1442 1442 1442 1442 1442 1441 1441 1441 1441 1440 1439 1439 1439 1439 1439 1438 1437 1436 1434 1433 1432 1430 1429 1427 1425 1424 1422 1420 1419 1418 1416 1415 1414 1413 1412 1412 1411 1410 1409 1409
1434 1434 1433 1433 1433 1433 1432 1432 1432 1433 1433 1433 1433 1434 1434 1435 1435 1436 1436 1437 1437 1437 1438 1438 1439 1439 1439 1439 1439 1439 1439 1439 1439 1439 1439 1439 1439 1438 1438 1437 1437 1437 1437 1436 1435 1434 1433 1432 1431 1429 1428 1426 1425 1423 1421 1420 1418 1416 1415 1414 1413 1412 1411 1410 1409 1409 1408 1407 1407
1431 1431 1431 1430 1430 1430 1430 1430 1430 1430 1431 1431 1431 1432 1432 1433 1434 1434 1434 1435 1435 1435 1436 1436 1437 1437 1437 1437 1437 1437 1437 1438 1438 1438 1437 1437 1436 1436 1435 1435 1434 1434 1434 1434 1433 1432 1430 1429 1428 1427 1426 1424 1422 1421 1419 1418 1416 1414 1413 1412 1411 1410 1409 1408 1407 1407 1406 1405 1404